Muscatine, IA

2:32 AM CDT on May 23, 2018 (GMT -0500)
Muscatine Municipal

Weather History for KMUT - February, 2012

Change the Weather History Date:

Tuesday, February 7, 2012

  Actual Average Record
Temperature  
Mean Temperature 28 °F -  
Max Temperature 35 °F 31 °F 60 °F (2009)
Min Temperature 21 °F 10 °F -11 °F (1983)
Degree Days  
Heating Degree Days 37    
Moisture  
Dew Point 26 °F    
Average Humidity 85    
Maximum Humidity 93    
Minimum Humidity 80    
Precipitation  
Precipitation 0.00 in - - ()
Sea Level Pressure  
Sea Level Pressure 30.31 in    
Wind  
Wind Speed 5 mph (NE)    
Max Wind Speed 18 mph    
Max Gust Speed 21 mph    
Visibility 5 miles    
Events Fog    
Averages and records for this station are not official NWS values.
T = Trace of Precipitation, MM = Missing Value Source: NWS Daily Summary

Daily Weather History Graph

Daily Weather History Graph

Search for Another Location

Airport or City:

Astronomy

Feb. 07, 2012 Rise Set
Actual Time 7:10 AM CST 5:27 PM CST
Civil Twilight 6:41 AM CST 5:56 PM CST
Nautical Twilight 6:08 AM CST 6:29 PM CST
Astronomical Twilight 5:36 AM CST 7:01 PM CST
Moon 5:39 PM CST (2/7) 6:38 AM CST (2/7)
Length of Visible Light 11h 15m
Length of Day
10h 17m
Full, 100% of the Moon is Illuminated
Feb 7
Full
Feb 7
Full
Feb 14
Last Quarter
Feb 21
New
Feb 29
First Quarter

Hourly Weather History & Observations

Time (CST) Temp. Windchill Dew Point Humidity Pressure Visibility Wind Dir Wind Speed Gust Speed Precip Events Conditions
12:15 AM 21.2 °F - 17.6 °F 86% 30.20 in 0.8 mi North - - N/A   Mist
12:35 AM 21.2 °F - 17.6 °F 86% 30.19 in 4.0 mi Calm Calm - N/A   Clear
12:55 AM 21.2 °F - 17.6 °F 86% 30.19 in 1.8 mi Calm Calm - N/A   Mist
1:15 AM 21.2 °F - 17.6 °F 86% 30.20 in 3.0 mi Calm Calm - N/A   Clear
1:35 AM 21.2 °F - 17.6 °F 86% 30.20 in 1.8 mi Calm Calm - N/A   Overcast
1:55 AM 21.2 °F - 17.6 °F 86% 30.21 in 0.5 mi Calm Calm - N/A Fog Light Freezing Fog
2:15 AM 21.2 °F - 17.6 °F 86% 30.20 in 0.2 mi Calm Calm - N/A Fog Light Freezing Fog
2:35 AM 21.2 °F - 17.6 °F 86% 30.21 in 0.5 mi Calm Calm - N/A Fog Light Freezing Fog
2:55 AM 21.2 °F - 19.4 °F 93% 30.20 in 3.0 mi Calm Calm - N/A   Mostly Cloudy
3:15 AM 26.6 °F - 21.2 °F 80% 30.20 in 4.0 mi Calm Calm - N/A   Overcast
3:35 AM 26.6 °F - 23.0 °F 86% 30.21 in 4.0 mi North - - N/A   Overcast
3:55 AM 26.6 °F - 23.0 °F 86% 30.22 in 4.0 mi Calm Calm - N/A   Overcast
4:15 AM 28.4 °F - 24.8 °F 86% 30.22 in 4.0 mi Calm Calm - N/A   Overcast
4:35 AM 28.4 °F - 24.8 °F 86% 30.22 in 4.0 mi Calm Calm - N/A   Overcast
4:55 AM 28.4 °F 23.3 °F 24.8 °F 86% 30.22 in 4.0 mi NE 4.6 mph - N/A   Overcast
5:15 AM 28.4 °F 22.2 °F 24.8 °F 86% 30.24 in 4.0 mi NE 5.8 mph - N/A   Overcast
5:35 AM 28.4 °F 21.2 °F 24.8 °F 86% 30.25 in 3.0 mi NNE 6.9 mph - N/A   Overcast
5:55 AM 28.4 °F - 24.8 °F 86% 30.25 in 2.5 mi North - - N/A   Overcast
6:15 AM 28.4 °F 20.4 °F 24.8 °F 86% 30.25 in 2.0 mi North 8.1 mph - N/A   Overcast
6:35 AM 28.4 °F 21.2 °F 24.8 °F 86% 30.26 in 1.8 mi North 6.9 mph - N/A   Overcast
6:55 AM 28.4 °F 22.2 °F 26.6 °F 93% 30.26 in 1.5 mi North 5.8 mph - N/A   Overcast
7:15 AM 28.4 °F 23.3 °F 26.6 °F 93% 30.27 in 1.5 mi North 4.6 mph - N/A   Overcast
7:35 AM 30.2 °F 25.4 °F 26.6 °F 86% 30.29 in 2.0 mi North 4.6 mph - N/A   Overcast
7:55 AM 30.2 °F 25.4 °F 26.6 °F 86% 30.29 in 2.0 mi North 4.6 mph - N/A   Overcast
8:15 AM 30.2 °F 22.6 °F 26.6 °F 86% 30.29 in 2.5 mi NNE 8.1 mph - N/A   Overcast
8:35 AM 30.2 °F 23.4 °F 28.4 °F 93% 30.29 in 1.5 mi NE 6.9 mph - N/A   Overcast
8:55 AM 32.0 °F 24.8 °F 28.4 °F 87% 30.30 in 2.0 mi NNE 8.1 mph - N/A   Overcast
9:15 AM 32.0 °F 25.6 °F 28.4 °F 87% 30.30 in 2.0 mi NE 6.9 mph - N/A   Overcast
9:35 AM 33.8 °F 26.4 °F 28.4 °F 81% 30.32 in 2.5 mi NE 9.2 mph - N/A   Overcast
9:55 AM 33.8 °F 27.7 °F 28.4 °F 81% 30.33 in 2.5 mi NE 6.9 mph - N/A   Overcast
10:15 AM 33.8 °F 26.4 °F 28.4 °F 81% 30.33 in 3.0 mi NE 9.2 mph - N/A   Overcast
10:35 AM 33.8 °F 25.8 °F 28.4 °F 81% 30.34 in 3.0 mi ENE 10.4 mph - N/A   Overcast
10:55 AM 33.8 °F 27.0 °F 28.4 °F 81% 30.34 in 3.0 mi NE 8.1 mph - N/A   Haze
11:15 AM 33.8 °F 27.0 °F 28.4 °F 81% 30.33 in 3.0 mi NE 8.1 mph - N/A   Haze
11:35 AM 33.8 °F 25.8 °F 28.4 °F 81% 30.34 in 3.0 mi NE 10.4 mph - N/A   Haze
11:55 AM 33.8 °F 27.7 °F 28.4 °F 81% 30.34 in 2.5 mi NNE 6.9 mph - N/A   Haze
12:15 PM 33.8 °F 27.7 °F 30.2 °F 87% 30.34 in 1.5 mi NNE 6.9 mph - N/A   Overcast
12:35 PM 33.8 °F 27.0 °F 30.2 °F 87% 30.34 in 1.2 mi NNE 8.1 mph - N/A   Overcast
12:55 PM 33.8 °F 25.8 °F 30.2 °F 87% 30.32 in 1.2 mi NE 10.4 mph - N/A   Overcast
1:15 PM 35.6 °F 29.2 °F 30.2 °F 81% 30.33 in 1.2 mi NE 8.1 mph - N/A   Overcast
1:35 PM 35.6 °F 30.7 °F 30.2 °F 81% 30.35 in 2.0 mi NNE 5.8 mph - N/A   Overcast
1:55 PM 35.6 °F 27.5 °F 30.2 °F 81% 30.35 in 2.0 mi NE 11.5 mph - N/A   Overcast
2:15 PM 33.8 °F 22.8 °F 30.2 °F 87% 30.34 in 1.5 mi NE 18.4 mph - N/A   Overcast
2:35 PM 33.8 °F 23.5 °F 30.2 °F 87% 30.35 in 3.0 mi NE 16.1 mph 20.7 mph N/A   Overcast
2:55 PM 33.8 °F 23.9 °F 30.2 °F 87% 30.36 in 10.0 mi NE 15.0 mph 20.7 mph N/A   Overcast
3:15 PM 33.8 °F 24.3 °F 30.2 °F 87% 30.36 in 10.0 mi NE 13.8 mph - N/A   Overcast
3:35 PM 33.8 °F 24.3 °F 28.4 °F 81% 30.36 in 10.0 mi NE 13.8 mph 17.3 mph N/A   Overcast
3:55 PM 33.8 °F 24.3 °F 28.4 °F 81% 30.37 in 10.0 mi NE 13.8 mph - N/A   Overcast
4:15 PM 33.8 °F 25.8 °F 28.4 °F 81% 30.37 in 10.0 mi NE 10.4 mph - N/A   Overcast
4:35 PM 33.8 °F 23.9 °F 28.4 °F 81% 30.38 in 7.0 mi NE 15.0 mph - N/A   Overcast
4:55 PM 33.8 °F 25.3 °F 28.4 °F 81% 30.38 in 10.0 mi NNE 11.5 mph - N/A   Overcast
5:15 PM 33.8 °F 26.4 °F 28.4 °F 81% 30.38 in 10.0 mi NNE 9.2 mph - N/A   Overcast
5:35 PM 32.0 °F 22.1 °F 28.4 °F 87% 30.39 in 10.0 mi NNE 13.8 mph - N/A   Overcast
5:55 PM 32.0 °F 22.1 °F 26.6 °F 80% 30.40 in 10.0 mi NNE 13.8 mph - N/A   Overcast
6:15 PM 32.0 °F 21.2 °F 26.6 °F 80% 30.40 in 10.0 mi NE 16.1 mph 19.6 mph N/A   Overcast
6:35 PM 30.2 °F 19.8 °F 26.6 °F 86% 30.41 in 10.0 mi NE 13.8 mph - N/A   Overcast
6:55 PM 30.2 °F 20.8 °F 26.6 °F 86% 30.41 in 10.0 mi NNE 11.5 mph - N/A   Overcast
7:15 PM 30.2 °F 21.3 °F 26.6 °F 86% 30.41 in 10.0 mi NNE 10.4 mph - N/A   Overcast
7:35 PM 30.2 °F 21.3 °F 26.6 °F 86% 30.41 in 10.0 mi NE 10.4 mph - N/A   Overcast
7:55 PM 30.2 °F 21.3 °F 24.8 °F 80% 30.41 in 10.0 mi NNE 10.4 mph - N/A   Overcast
8:15 PM 30.2 °F 21.3 °F 24.8 °F 80% 30.41 in 10.0 mi NNE 10.4 mph - N/A   Overcast
8:35 PM 30.2 °F 23.4 °F 26.6 °F 86% 30.42 in 10.0 mi NNE 6.9 mph - N/A   Overcast
8:55 PM 30.2 °F 21.9 °F 24.8 °F 80% 30.42 in 10.0 mi NNE 9.2 mph - N/A   Overcast
9:15 PM 30.2 °F 21.9 °F 24.8 °F 80% 30.42 in 10.0 mi NNE 9.2 mph - N/A   Overcast
9:35 PM 30.2 °F 21.9 °F 24.8 °F 80% 30.43 in 10.0 mi NNE 9.2 mph - N/A   Overcast
9:55 PM 30.2 °F 22.6 °F 24.8 °F 80% 30.43 in 10.0 mi NNE 8.1 mph - N/A Snow Light Snow
10:15 PM 30.2 °F 23.4 °F 24.8 °F 80% 30.44 in 10.0 mi NE 6.9 mph - N/A Snow Light Snow
10:35 PM 30.2 °F 22.6 °F 24.8 °F 80% 30.44 in 10.0 mi NE 8.1 mph - N/A   Overcast
10:55 PM 30.2 °F 23.4 °F 24.8 °F 80% 30.44 in 10.0 mi NE 6.9 mph - N/A   Overcast
11:15 PM 30.2 °F 22.6 °F 24.8 °F 80% 30.44 in 10.0 mi NNE 8.1 mph - N/A Snow Light Snow
11:35 PM 28.4 °F 21.2 °F 24.8 °F 86% 30.44 in 10.0 mi NNE 6.9 mph - N/A Snow Light Snow
11:55 PM 28.4 °F 21.2 °F 23.0 °F 80% 30.45 in 10.0 mi NNE 6.9 mph - N/A   Overcast